Regional Weather Roundup
Issued by NWS

Home | Current Version | Previous Version | Text Only | Print | Product List | Glossary Off
Versions: 1 2 3 4 5 6 7 8 9 10 11 12 13 14 15 16 17 18 19 20 21 22 23 24 25 26 27 28 29 30 31 32 33 34 35 36 37 38 39 40 41 42 43 44 45 46

000
ASUS45 KSLC 300810
RWRUT

UTAH REGIONAL WEATHER ROUNDUP
NATIONAL WEATHER SERVICE SALT LAKE CITY UT
200 AM MDT SUN AUG 30 2015

UTZ001>011-023>025-300900-

NORTHERN UTAH

CITY           SKY/WX    TMP DP  RH WIND       PRES   REMARKS
BRIGHAM CITY   MOCLDY    87  34  15 S17G26    29.88R
HILL AFB       MOCLDY    82  43  25 S17       29.93R
LOGAN          PTCLDY    69  49  48 N10       29.87S
OGDEN          MOCLDY    83  42  23 S21       29.88S
PROVO AIRPORT  MOCLDY    73  48  40 E5        29.98S
SALT LAKE CITY MOCLDY    83  43  24 S16       29.89S
VERNAL         PTCLDY    62  40  44 W6        30.07S
WENDOVER       CLOUDY    81  36  19 NW26G35   29.90R
HEBER CITY     MOCLDY    64  50  59 E7        30.05F
WEST JORDAN    CLEAR     79  45  29 SE10      29.95S

$$

UTZ012>022-026-027-300900-

SOUTHERN/CENTRAL UTAH

CITY           SKY/WX    TMP DP  RH WIND       PRES   REMARKS
BLANDING       CLEAR     64  34  32 E6        30.25S
BRYCE CANYON   PTCLDY    51  46  83 CALM      30.30F
CEDAR CITY     PTCLDY    74  45  35 S13       30.12R
DELTA          PTCLDY    75  42  29 S8        30.01S
HANKSVILLE     CLEAR     68  41  37 CALM      30.04R
MILFORD        CLEAR     69  44  40 S9        30.04S
MOAB/CYNLANDS  CLEAR     70  30  22 E7        30.01F
PRICE          CLOUDY    70  34  26 CALM      30.12S
ST GEORGE      PTSUNNY   84  52  32 SE7       29.92S
KANAB          CLEAR     64  55  72 N5        30.15F

$$

REGIONAL REPORTS     COLORADO/ARIZONA

CITY           SKY/WX    TMP DP  RH WIND       PRES   REMARKS
CRAIG, CO      PTCLDY    51  44  77 CALM      30.18S
GRAND JUNCTION CLEAR     70  42  36 SE15      30.07S
RIFLE          PTCLDY    59  45  59 CALM      30.15S
MONTROSE       PTCLDY    64  42  44 SE10      30.19S
CORTEZ         MOCLDY    59  45  59 MISG      30.20S
PAGE, AZ       MOCLDY    80  48  32 CALM      30.03S
GRAND CANYON   CLEAR     50  43  77 CALM      30.27S
KINGMAN        CLOUDY    87  48  25 S13       29.98R
FLAGSTAFF      CLEAR     54  48  80 CALM      30.32R

$$

REGIONAL REPORTS    NEVADA/IDAHO/WYOMING

CITY           SKY/WX    TMP DP  RH WIND       PRES   REMARKS
LAS VEGAS, NV  CLEAR     92  37  14 SW7       29.81R
ELY            PTCLDY    68  35  29 SW14      30.11R
ELKO           MOCLDY    62  40  44 W5        30.04R
POCATELLO, ID  CLEAR     61  58  90 SW12      29.92R
BURLEY         MOCLDY    59  50  72 SW9       29.92R
EVANSTON, WY   MOCLDY    66  36  32 S12       30.14F
ROCK SPRINGS   MOCLDY    68  32  26 S9        30.13F
KEMMERER       MOCLDY    61  32  33 SE5       30.16F

$$



USA.gov is the U.S. government's official web portal to all federal, state and local government web resources and services.